Location: Mentone
(34.5413°N, 85.5351°W)
Time: 13:36:41
(UTC-05:00)

Centaur AC-72 - Visible Passes

Search period start: 22 July 2017 00:00
Search period end: 01 August 2017 00:00
Orbit: 1105 x 35251 km, 19.3° (Epoch: 20 July)

Date Brightness Start Highest point End Pass type
(mag) Time Alt. Az. Time Alt. Az. Time Alt. Az.
22 Jul 9.6 22:42:28 10° SW 23:47:15 13° WSW 01:16:01 10° WSW visible
23 Jul 6.3 18:41:22 10° SSW 22:14:54 39° SSW 04:16:05 10° ESE visible
24 Jul 7.0 15:43:20 10° S 00:36:32 61° S 01:23:10 10° E visible
25 Jul 7.7 16:20:00 10° ESE 20:57:22 38° ESE 22:21:03 10° E visible
26 Jul 9.6 22:17:36 10° SW 23:31:58 14° WSW 01:20:13 10° WSW visible
27 Jul 6.3 18:24:39 10° SSW 22:01:50 40° SSW 04:00:13 10° ESE visible
28 Jul 6.9 15:27:45 10° S 00:18:10 62° S 01:07:11 10° E visible
29 Jul 7.7 16:06:18 10° ESE 20:40:16 38° ESE 22:04:43 10° E visible
30 Jul 9.6 21:54:28 10° SW 23:16:38 15° WSW 01:22:50 10° WSW visible
31 Jul 5.2 05:58:53 10° W 06:26:23 29° SW 06:33:46 10° SSE visible
